Total_Precipitation_Accumulation
0.12 0.19 0.23 0.28 0.23 0.17 0.14 0.15 0.24 0.31 0.44 0.54 0.54 0.66 0.91 0.78 0.66 0.52 0.54 0.47 0.44 0.48 0.57 0.60 0.67 0.70 0.74 0.83 0.95 1.02 1.18 1.40 1.67 1.91 1.73 1.48 1.45 1.42 1.38 1.46 1.59 1.84 2.00 2.10
0.12 0.16 0.20 0.24 0.26 0.19 0.16 0.14 0.13 0.25 0.43 0.52 0.60 0.64 0.74 0.72 0.74 0.65 0.64 0.62 0.59 0.65 0.66 0.70 0.77 0.75 0.72 0.70 0.82 0.96 1.13 1.31 1.52 1.64 1.46 1.26 1.15 1.18 1.22 1.30 1.48 1.65 1.81 1.93
0.21 0.19 0.22 0.27 0.26 0.22 0.19 0.20 0.21 0.33 0.45 0.50 0.64 0.61 0.63 0.76 0.82 0.78 0.59 0.62 0.65 0.61 0.66 0.68 0.71 0.74 0.72 0.69 0.86 1.11 1.17 1.22 1.36 1.48 1.46 1.33 1.13 1.11 1.17 1.26 1.42 1.53 1.58 1.64
0.35 0.39 0.44 0.36 0.32 0.28 0.26 0.31 0.31 0.35 0.41 0.51 0.68 0.64 0.52 0.54 0.60 0.68 0.70 0.69 0.66 0.65 0.65 0.63 0.63 0.68 0.68 0.72 0.87 1.05 1.15 1.24 1.43 1.60 1.59 1.51 1.42 1.35 1.40 1.48 1.49 1.48 1.52 1.55
0.56 0.57 0.48 0.46 0.46 0.46 0.49 0.60 0.53 0.48 0.47 0.52 0.54 0.62 0.67 0.58 0.50 0.56 0.60 0.71 0.71 0.66 0.68 0.69 0.70 0.72 0.74 0.79 0.96 1.17 1.30 1.41 1.51 1.66 1.71 1.70 1.76 1.79 1.82 1.81 1.69 1.62 1.63 1.68
0.65 0.74 0.73 0.69 0.59 0.52 0.64 1.00 0.90 0.73 0.61 0.59 0.60 0.87 1.01 0.84 0.67 0.64 0.59 0.68 0.79 0.77 0.72 0.72 0.74 0.84 0.99 1.07 1.18 1.29 1.45 1.60 1.66 1.83 1.93 1.89 1.96 2.05 2.11 2.14 2.05 2.03 1.91 1.81
0.74 0.83 0.87 0.80 0.61 0.62 1.10 1.42 1.09 0.91 0.83 0.77 0.84 0.86 0.88 0.78 0.69 0.69 0.64 0.66 0.75 0.89 0.81 0.76 0.81 0.97 1.18 1.26 1.38 1.44 1.53 1.64 1.74 1.95 2.12 2.24 2.37 2.46 2.41 2.37 2.36 2.28 2.09 1.96
0.94 1.13 1.18 0.79 0.76 1.03 1.26 1.12 1.10 1.11 1.15 1.13 0.99 0.79 0.70 0.70 0.63 0.65 0.63 0.62 0.63 0.67 0.74 0.79 0.86 1.06 1.26 1.32 1.35 1.49 1.60 1.70 1.89 2.06 2.11 2.18 2.45 2.53 2.49 2.42 2.32 2.20 2.08 1.90
1.13 1.28 1.07 0.85 0.93 0.97 1.07 1.16 1.20 1.20 1.21 1.12 0.98 0.83 0.74 0.71 0.62 0.58 0.56 0.59 0.62 0.65 0.73 0.84 0.97 1.18 1.45 1.51 1.47 1.46 1.59 1.75 1.96 2.12 2.27 2.39 2.50 2.45 2.40 2.39 2.29 2.15 2.06 1.90
1.27 1.26 1.02 0.97 1.00 0.96 1.02 1.07 1.18 1.12 1.05 1.02 0.97 0.86 0.75 0.65 0.55 0.52 0.56 0.58 0.62 0.66 0.74 0.86 1.04 1.20 1.44 1.42 1.36 1.40 1.43 1.56 1.71 1.82 1.89 2.01 2.19 2.14 2.05 2.06 2.10 2.06 2.00 1.92
1.38 1.39 1.29 1.22 1.21 1.09 0.98 0.92 0.89 0.90 0.90 0.93 0.93 0.91 0.76 0.64 0.56 0.49 0.51 0.54 0.58 0.70 0.85 0.94 1.05 1.15 1.21 1.24 1.28 1.31 1.28 1.32 1.42 1.51 1.61 1.73 1.81 1.88 1.84 1.80 1.73 1.74 1.74 1.74
1.55 1.37 1.35 1.49 1.33 1.19 1.01 0.92 0.85 0.80 0.82 0.85 0.86 0.86 0.74 0.67 0.62 0.51 0.47 0.51 0.61 0.71 0.81 0.90 1.03 1.20 1.27 1.26 1.32 1.37 1.34 1.30 1.29 1.33 1.40 1.47 1.56 1.57 1.54 1.43 1.32 1.23 1.18 1.19
1.24 1.17 1.16 1.23 1.16 1.08 1.00 0.99 1.01 0.95 0.88 0.83 0.83 0.79 0.69 0.64 0.60 0.53 0.52 0.56 0.65 0.66 0.71 0.79 0.91 1.09 1.25 1.38 1.42 1.46 1.42 1.36 1.32 1.26 1.26 1.32 1.38 1.44 1.43 1.28 1.09 0.95 0.86 0.82
1.12 1.06 1.14 1.14 1.09 0.99 0.96 0.99 1.02 0.92 0.88 0.84 0.83 0.77 0.70 0.64 0.59 0.56 0.54 0.56 0.60 0.63 0.65 0.75 0.86 0.94 1.06 1.26 1.41 1.46 1.43 1.36 1.29 1.23 1.18 1.20 1.23 1.25 1.32 1.38 1.29 1.10 0.90 0.75
1.30 1.14 1.14 1.13 1.11 1.01 0.90 0.91 0.91 0.83 0.75 0.75 0.76 0.75 0.69 0.64 0.58 0.57 0.55 0.53 0.57 0.64 0.66 0.75 0.85 0.91 1.02 1.15 1.23 1.24 1.24 1.20 1.14 1.14 1.15 1.14 1.16 1.17 1.16 1.23 1.24 1.18 1.04 0.87
1.26 1.12 1.01 1.01 1.00 1.00 0.91 0.87 0.85 0.82 0.74 0.67 0.67 0.62 0.58 0.53 0.51 0.52 0.51 0.52 0.62 0.68 0.72 0.83 0.90 0.94 1.06 1.17 1.22 1.21 1.19 1.13 1.05 1.05 1.10 1.12 1.13 1.13 1.10 1.16 1.17 1.17 1.07 0.90
1.24 1.15 0.99 0.87 0.82 0.84 0.84 0.77 0.70 0.70 0.69 0.63 0.59 0.56 0.51 0.49 0.51 0.51 0.47 0.49 0.58 0.67 0.76 0.92 0.98 0.96 1.08 1.22 1.30 1.27 1.18 1.07 0.94 0.90 0.94 1.00 1.05 1.05 1.03 1.05 1.05 1.08 0.98 0.79
1.02 0.98 0.92 0.84 0.74 0.72 0.76 0.72 0.64 0.64 0.67 0.60 0.55 0.57 0.58 0.61 0.70 0.74 0.70 0.65 0.68 0.67 0.70 0.82 0.90 0.97 1.07 1.18 1.23 1.24 1.20 1.11 0.98 0.85 0.82 0.89 0.94 0.97 0.98 0.97 0.97 0.97 0.88 0.69
0.87 0.93 0.88 0.80 0.76 0.70 0.75 0.74 0.70 0.69 0.67 0.61 0.56 0.57 0.63 0.72 0.83 0.90 0.89 0.88 0.90 0.87 0.79 0.76 0.83 0.88 0.98 1.05 1.08 1.13 1.11 1.05 0.95 0.79 0.75 0.81 0.87 0.95 0.95 0.89 0.90 0.90 0.81 0.69
0.88 0.93 0.85 0.78 0.82 0.83 0.84 0.82 0.76 0.73 0.68 0.65 0.66 0.69 0.73 0.78 0.88 0.96 0.95 0.93 0.92 0.95 0.88 0.78 0.75 0.77 0.83 0.88 0.92 0.97 0.96 0.97 0.94 0.77 0.71 0.83 0.92 0.98 0.94 0.85 0.85 0.82 0.73 0.70
0.83 0.83 0.77 0.66 0.64 0.65 0.66 0.66 0.68 0.69 0.73 0.78 0.88 0.97 1.00 0.94 0.94 1.06 1.14 1.02 0.84 0.85 0.83 0.78 0.70 0.69 0.70 0.80 0.84 0.87 0.87 0.86 0.90 0.82 0.76 0.83 0.91 0.95 0.92 0.85 0.79 0.72 0.66 0.69
0.75 0.74 0.71 0.65 0.58 0.54 0.48 0.48 0.55 0.64 0.73 0.82 0.89 1.02 1.13 1.17 1.16 1.13 1.03 1.00 0.90 0.86 0.76 0.68 0.61 0.59 0.58 0.63 0.74 0.79 0.78 0.77 0.81 0.79 0.76 0.80 0.88 0.90 0.88 0.80 0.74 0.67 0.64 0.66
0.71 0.69 0.66 0.61 0.61 0.56 0.49 0.47 0.47 0.54 0.64 0.73 0.84 1.05 1.18 1.20 1.28 1.40 1.21 0.90 0.80 0.81 0.72 0.61 0.56 0.53 0.48 0.46 0.59 0.68 0.69 0.74 0.76 0.76 0.73 0.68 0.69 0.72 0.73 0.67 0.63 0.63 0.66 0.69
0.72 0.66 0.69 0.69 0.63 0.55 0.53 0.51 0.51 0.55 0.60 0.65 0.74 0.93 1.15 1.28 1.23 1.11 1.06 0.93 0.79 0.71 0.66 0.60 0.50 0.47 0.45 0.41 0.48 0.57 0.63 0.68 0.66 0.64 0.62 0.59 0.63 0.67 0.65 0.62 0.60 0.62 0.66 0.69
0.71 0.68 0.70 0.75 0.72 0.69 0.67 0.65 0.67 0.67 0.69 0.70 0.70 0.75 0.87 1.09 1.24 1.07 0.87 0.80 0.75 0.65 0.63 0.62 0.53 0.47 0.43 0.40 0.41 0.48 0.54 0.58 0.57 0.56 0.54 0.57 0.61 0.60 0.56 0.54 0.56 0.59 0.64 0.67
0.69 0.68 0.70 0.72 0.73 0.75 0.76 0.82 0.91 0.91 0.94 0.99 0.90 0.82 0.83 0.90 1.00 0.99 0.85 0.75 0.69 0.65 0.60 0.61 0.58 0.52 0.48 0.46 0.44 0.46 0.51 0.57 0.59 0.57 0.53 0.57 0.56 0.53 0.53 0.55 0.53 0.53 0.56 0.57
0.69 0.65 0.66 0.70 0.72 0.74 0.83 0.95 1.07 1.13 1.18 1.26 1.20 1.02 0.92 0.87 0.89 0.90 0.83 0.76 0.73 0.70 0.67 0.63 0.59 0.57 0.55 0.52 0.46 0.45 0.51 0.58 0.61 0.61 0.61 0.63 0.64 0.63 0.59 0.57 0.52 0.48 0.48 0.44